[[{"header":{"parameterUnit":"m.s-1","parameterCategory":1,"la1":30.2991,"la2":30.254,"lo1":-89.0895,"lo2":-89.0444,"dy":0.0017,"dx":0.0017,"nx":28,"ny":28,"refTime":"2024-04-05T21:00:00:Z","depth":0,"parameterNumber":2,"parameterNumberName":"U-component_of_WINDS"},"data":[0,0,0,0,0,0,0,0,0,0,0,0,0,0,0,0,0,0,0,0,0,0,0,0,0,0,0,0,0,0,0,0,0,0,0,0,0,0,0,0,0,0,0,0,0,0,0,0,0,0,0,0,0,0,0,0,0,0,-3.1828,-3.1829,0,-3.1894,-3.1894,-3.1895,-3.1895,-3.1894,-3.1893,-3.1892,-3.1959,-3.1961,-3.1964,0,0,0,0,0,0,0,0,0,0,0,0,0,-3.1702,-3.1704,-3.1828,-3.1829,-3.1829,-3.1893,-3.1894,-3.1895,-3.1895,-3.1894,-3.1893,-3.1892,-3.1958,-3.1961,-3.1964,0,0,0,0,0,0,0,0,0,0,0,0,0,-3.1761,-3.1705,-3.1828,-3.1837,-3.1838,-3.1893,-3.1894,-3.1896,-3.1895,-3.1894,-3.1892,-3.1891,-3.1957,-3.1961,-3.1965,-3.2014,0,0,-3.1976,-3.1978,0,0,0,0,0,0,0,0,-3.1758,-3.1766,-3.1835,-3.1836,-3.1838,-3.1885,-3.1874,-3.1935,-3.1895,-3.1874,-3.1892,-3.1891,-3.1935,-3.1941,-3.1956,-3.2017,-3.202,-3.1977,-3.1979,-3.1981,-3.1982,0,0,0,0,0,0,0,-3.1754,-3.1763,-3.1854,-3.1836,-3.1838,-3.1838,-3.1845,-3.1886,-3.1911,-3.1875,-3.1876,-3.1883,-3.1936,-3.1952,-3.1957,-3.2021,-3.1977,-3.198,-3.1982,-3.1984,-3.2127,-3.2128,0,0,0,0,0,0,-3.1748,-3.1759,-3.1852,-3.1856,-3.1794,-3.1841,-3.1849,-3.1871,-3.191,-3.1915,-3.1884,-3.1883,-3.1946,-3.1953,-3.196,-3.202,-3.1981,-3.1984,-3.1987,-3.2126,-3.2127,-3.2129,0,0,0,0,0,0,-3.1745,-3.1756,-3.1849,-3.1808,-3.182,-3.1845,-3.1869,-3.1873,-3.1889,-3.1917,-3.1922,-3.1896,-3.1945,-3.1954,-3.2001,-3.2022,-3.1986,-3.199,-3.2124,-3.2126,-3.2128,-3.2141,0,0,0,0,0,0,-3.1741,-3.1755,-3.1774,-3.1808,-3.1822,-3.1889,-3.1871,-3.1875,-3.1896,-3.1895,-3.193,-3.1934,-3.1945,-3.1995,-3.2005,-3.2027,-3.1993,-3.2122,-3.2125,-3.2127,-3.2139,-3.2144,-3.2148,0,0,0,0,0,-3.1737,-3.1775,-3.1775,-3.1786,-3.1846,-3.189,-3.1898,-3.191,-3.1898,-3.1917,-3.1935,-3.1933,-3.2019,-3.2,-3.2011,-3.2034,-3.2121,-3.2124,-3.2127,-3.2137,-3.2143,-3.2148,0,0,0,0,0,0,-3.1742,-3.178,-3.178,-3.183,-3.1857,-3.189,-3.1914,-3.1916,-3.1946,-3.1944,-3.1958,-3.1965,-3.2012,-3.2028,-3.2006,-3.2085,-3.2068,-3.2074,-3.2072,-3.2078,-3.2082,-3.2076,-3.1996,0,0,0,0,0,-3.1749,-3.1782,-3.1813,-3.1854,-3.1868,-3.1889,-3.1909,-3.1916,-3.1944,-3.1955,-3.1977,-3.2004,-3.2037,-3.2059,-3.2091,-3.2142,-3.2149,-3.2164,-3.2168,-3.2172,-3.2176,-3.2204,-3.2211,-3.214,-3.214,-3.214,0,0,-3.1764,-3.1789,-3.1808,-3.1856,-3.1878,-3.1911,-3.1898,-3.1934,-3.1959,-3.1961,-3.2005,-3.2022,-3.2054,-3.2103,-3.2126,-3.2118,-3.2197,-3.2176,-3.2178,-3.2181,-3.2208,-3.2215,-3.2221,-3.2142,-3.2142,-3.2141,0,0,-3.1808,-3.183,-3.1867,-3.1889,-3.1922,-3.1936,-3.1945,-3.1978,-3.1989,-3.2035,-3.2037,-3.2067,-3.2124,-3.2146,-3.2165,-3.2218,-3.2217,-3.2228,-3.225,-3.2277,-3.2283,-3.2288,-3.2306,-3.2313,-3.2233,-3.2233,-3.2233,0,-3.1822,-3.1872,-3.1885,-3.1921,-3.1942,-3.1946,-3.1983,-3.2004,-3.2046,-3.206,-3.2051,-3.2123,-3.2145,-3.2199,-3.2212,-3.2227,-3.2237,-3.2223,-3.2281,-3.2286,-3.2291,-3.2309,-3.2316,-3.2234,-3.2234,-3.2234,-3.2234,0,-3.1887,-3.1923,-3.1948,-3.1989,-3.2013,-3.2049,-3.2068,-3.2091,-3.2096,-3.2111,-3.2157,-3.2184,-3.2221,-3.2235,-3.224,-3.229,-3.2284,-3.2278,-3.2262,-3.2299,-3.2315,-3.2322,-3.2235,-3.2235,-3.2235,-3.2234,0,0,-3.1935,-3.1983,-3.1992,-3.201,-3.2047,-3.2075,-3.2112,-3.2148,-3.2167,-3.2197,-3.2227,-3.2276,-3.2271,-3.2293,-3.2301,-3.2325,-3.2365,-3.2316,-3.2317,-3.2323,-3.242,-3.2423,-3.2431,-3.2365,-3.2367,-3.2368,-3.2417,0,-3.1982,-3.2047,-3.206,-3.2116,-3.2149,-3.2153,-3.2185,-3.2212,-3.2227,-3.2257,-3.2274,-3.2308,-3.2299,-3.2312,-3.2336,-3.2355,-3.2384,-3.2352,-3.2393,-3.2395,-3.2384,-3.244,-3.2443,-3.2488,-3.2424,-3.2425,-3.2426,0,-3.2044,-3.2075,-3.2134,-3.2167,-3.2182,-3.221,-3.2245,-3.2274,-3.2304,-3.2313,-3.2338,-3.2344,-3.2382,-3.2365,-3.2419,-3.2396,-3.2414,-3.2426,-3.2428,-3.2431,-3.2411,-3.2443,-3.2503,-3.2509,-3.2436,-3.2435,-3.2435,0,-3.2071,-3.2128,-3.2171,-3.2186,-3.2226,-3.2246,-3.2264,-3.2293,-3.2314,-3.2345,-3.2359,-3.2394,-3.2413,-3.244,-3.2455,-3.2442,-3.2507,-3.2491,-3.2515,-3.2515,-3.2527,-3.2526,-3.259,-3.2542,-3.2542,-3.2542,-3.2541,0,-3.2121,-3.2157,-3.2183,-3.2209,-3.225,-3.2265,-3.2305,-3.2323,-3.2349,-3.2378,-3.2385,-3.2413,-3.2432,-3.2463,-3.2475,-3.2517,-3.2526,-3.2534,-3.2537,-3.2533,-3.2532,-3.2544,-3.254,-3.2543,-3.2543,-3.2543,-3.2542,0,-3.2158,-3.2177,-3.2223,-3.2258,-3.2267,-3.2295,-3.2325,-3.235,-3.2366,-3.2404,-3.2414,-3.2439,-3.2475,-3.2494,-3.2539,-3.2548,-3.2594,-3.2596,-3.2584,-3.2584,-3.2607,-3.2604,-3.268,-3.269,-3.2636,-3.2637,-3.2637,0,-3.2187,-3.2215,-3.2253,-3.2273,-3.2291,-3.2324,-3.2346,-3.2362,-3.2385,-3.2422,-3.2443,-3.248,-3.251,-3.2568,-3.259,-3.2625,-3.2627,-3.2651,-3.2632,-3.2627,-3.2625,-3.2623,-3.2626,-3.2653,-3.2654,-3.2654,-3.2655,0,-3.2238,-3.2246,-3.2277,-3.2312,-3.2338,-3.2366,-3.2394,-3.241,-3.2432,-3.2457,-3.2494,-3.2518,-3.2564,-3.26,-3.2637,-3.2655,-3.2658,-3.2661,-3.2668,-3.2663,-3.2655,-3.2658,-3.2591,-3.2658,-3.2658,-3.2658,-3.2658,-3.2657,-3.2271,-3.2296,-3.2326,-3.2361,-3.2383,-3.2409,-3.2435,-3.2455,-3.2486,-3.2525,-3.2533,-3.2573,-3.2603,-3.2652,-3.2672,-3.2703,-3.2698,-3.2708,-3.2711,-3.2713,-3.2713,-3.2651,-3.271,-3.271,-3.271,-3.271,-3.271,0,-3.2321,-3.2341,-3.2373,-3.2411,-3.2439,-3.244,-3.2471,-3.2494,-3.2528,-3.2556,-3.2586,-3.2629,-3.2664,-3.269,-3.2726,-3.2746,-3.2748,-3.2754,-3.2752,-3.2756,-3.2716,-3.2706,-3.2752,-3.2752,-3.2752,-3.2752,-3.2752,-3.2752,-3.235,-3.2392,-3.2404,-3.2457,-3.2477,-3.2515,-3.2533,-3.2557,-3.2579,-3.2626,-3.2656,-3.2672,-3.2699,-3.2738,-3.277,-3.2777,-3.2789,-3.2796,-3.2802,-3.2764,-3.2759,-3.2755,-3.2745,-3.2799,-3.2799,-3.284,-3.284,-3.284]},{"header":{"parameterUnit":"m.s-1","parameterCategory":1,"la1":30.2991,"la2":30.254,"lo1":-89.0895,"lo2":-89.0444,"dy":0.0017,"dx":0.0017,"nx":28,"ny":28,"refTime":"2024-04-05T21:00:00:Z","depth":0,"parameterNumber":3,"parameterNumberName":"V-component_of_WINDS"},"data":[0,0,0,0,0,0,0,0,0,0,0,0,0,0,0,0,0,0,0,0,0,0,0,0,0,0,0,0,0,0,0,0,0,0,0,0,0,0,0,0,0,0,0,0,0,0,0,0,0,0,0,0,0,0,0,0,0,0,5.3035,5.3036,0,5.3095,5.3096,5.3097,5.3118,5.3118,5.3118,5.3118,5.3174,5.3176,5.3178,0,0,0,0,0,0,0,0,0,0,0,0,0,5.2935,5.2936,5.3035,5.3036,5.3036,5.3095,5.3096,5.3097,5.3118,5.3118,5.3118,5.3117,5.3174,5.3176,5.3178,0,0,0,0,0,0,0,0,0,0,0,0,0,5.2985,5.2937,5.3035,5.3054,5.3057,5.3095,5.3096,5.3097,5.3118,5.3118,5.3118,5.3117,5.3173,5.3176,5.3178,5.32,0,0,5.3186,5.3187,0,0,0,0,0,0,0,0,5.2982,5.2988,5.3051,5.3053,5.3056,5.3099,5.3082,5.3131,5.3118,5.3095,5.3118,5.3117,5.3149,5.3154,5.3165,5.3203,5.3205,5.3186,5.3188,5.3189,5.3189,0,0,0,0,0,0,0,5.2978,5.2986,5.3059,5.3051,5.3055,5.3059,5.3066,5.3091,5.3123,5.3097,5.3098,5.3106,5.315,5.3163,5.3167,5.3206,5.3186,5.3188,5.319,5.3191,5.3266,5.3266,0,0,0,0,0,0,5.2972,5.2983,5.3057,5.306,5.3017,5.3061,5.3069,5.3085,5.3123,5.3128,5.3106,5.3106,5.3159,5.3164,5.3169,5.3199,5.3189,5.3191,5.3193,5.3265,5.3266,5.3267,0,0,0,0,0,0,5.297,5.2979,5.3054,5.3022,5.3032,5.3063,5.3082,5.3087,5.3099,5.3129,5.3135,5.3113,5.3159,5.3165,5.3193,5.3201,5.3192,5.3195,5.3265,5.3266,5.3266,5.3257,0,0,0,0,0,0,5.2967,5.2978,5.2987,5.3022,5.3034,5.3078,5.3082,5.3088,5.3104,5.3106,5.3138,5.3143,5.3159,5.3189,5.3195,5.3204,5.3197,5.3264,5.3265,5.3266,5.3257,5.3257,5.3258,0,0,0,0,0,5.2963,5.298,5.2987,5.2996,5.3046,5.3078,5.3085,5.3105,5.3105,5.3114,5.3134,5.3142,5.3199,5.3192,5.3199,5.3209,5.3264,5.3265,5.3266,5.3256,5.3257,5.3258,0,0,0,0,0,0,5.2942,5.2985,5.2993,5.3022,5.3047,5.3082,5.3094,5.3105,5.3128,5.3128,5.3151,5.3158,5.3184,5.3199,5.319,5.3233,5.3232,5.3234,5.3222,5.3223,5.3223,5.3219,5.3199,0,0,0,0,0,5.2942,5.2966,5.3001,5.3023,5.3035,5.3063,5.3077,5.3091,5.3117,5.3126,5.3148,5.3171,5.3195,5.321,5.3233,5.3259,5.3267,5.3269,5.327,5.327,5.3272,5.3288,5.329,5.327,5.327,5.327,0,0,5.2939,5.2966,5.2979,5.302,5.304,5.3064,5.3071,5.3095,5.3113,5.3129,5.3158,5.3175,5.3202,5.323,5.3243,5.3243,5.328,5.3271,5.3271,5.3273,5.329,5.3292,5.3293,5.3271,5.3271,5.327,0,0,5.2947,5.297,5.2992,5.3013,5.3045,5.3064,5.3069,5.3103,5.3116,5.3145,5.3159,5.3179,5.3219,5.3238,5.3253,5.3272,5.328,5.3279,5.3281,5.3297,5.3298,5.33,5.3307,5.331,5.328,5.328,5.328,0,5.294,5.2978,5.3001,5.3026,5.3043,5.3062,5.3085,5.3103,5.314,5.3152,5.3152,5.3204,5.3224,5.3257,5.3262,5.3273,5.328,5.3275,5.3297,5.3298,5.33,5.3308,5.331,5.328,5.328,5.328,5.328,0,5.2967,5.2993,5.3007,5.3045,5.3065,5.3087,5.3114,5.313,5.3143,5.3161,5.3191,5.3216,5.3245,5.3254,5.3265,5.3289,5.3289,5.3293,5.3292,5.3301,5.3309,5.3312,5.328,5.328,5.328,5.328,0,0,5.2962,5.3016,5.302,5.3039,5.3077,5.3097,5.3121,5.3152,5.3166,5.3191,5.3212,5.3246,5.3251,5.3268,5.3282,5.3296,5.3311,5.3298,5.3299,5.33,5.334,5.3337,5.334,5.3317,5.3317,5.3318,5.3338,0,5.2976,5.3022,5.3045,5.308,5.3105,5.3125,5.3146,5.3171,5.3189,5.3212,5.3231,5.3256,5.326,5.3271,5.3285,5.3306,5.3319,5.3304,5.3336,5.3337,5.3329,5.3344,5.334,5.3358,5.3341,5.3341,5.3342,0,5.2997,5.3026,5.3065,5.3102,5.3113,5.3132,5.3163,5.3185,5.3214,5.3227,5.3247,5.3261,5.3287,5.3285,5.3321,5.3311,5.3325,5.3337,5.3339,5.3342,5.334,5.3348,5.3364,5.3367,5.3346,5.3346,5.3345,0,5.2991,5.3039,5.3069,5.3084,5.3128,5.3141,5.3159,5.3189,5.3206,5.3233,5.3245,5.3274,5.3289,5.3311,5.3332,5.3329,5.3367,5.3366,5.3377,5.3377,5.3384,5.3383,5.3403,5.3392,5.3392,5.3392,5.3392,0,5.3004,5.3027,5.3067,5.3085,5.3112,5.3138,5.3164,5.3183,5.321,5.3232,5.3249,5.3269,5.3297,5.332,5.3336,5.3364,5.3371,5.3381,5.3385,5.338,5.3379,5.339,5.3389,5.3393,5.3393,5.3393,5.3393,0,5.3001,5.3029,5.3063,5.3103,5.3114,5.3132,5.3166,5.3184,5.3204,5.3232,5.324,5.3271,5.3299,5.3323,5.336,5.3371,5.3401,5.3405,5.3391,5.3394,5.3404,5.3403,5.3431,5.3437,5.3422,5.3422,5.3422,0,5.3008,5.3027,5.307,5.3087,5.3106,5.3133,5.3153,5.3179,5.3198,5.3235,5.3249,5.3279,5.3305,5.335,5.3375,5.3403,5.3409,5.3417,5.3413,5.3408,5.341,5.3409,5.3411,5.3417,5.3417,5.3417,5.3417,0,5.3017,5.303,5.3058,5.3092,5.3115,5.3142,5.3169,5.3182,5.3214,5.3234,5.3265,5.3286,5.3325,5.3355,5.3387,5.3405,5.3416,5.3419,5.3423,5.3418,5.3409,5.3415,5.3393,5.3418,5.3418,5.3418,5.3418,5.3418,5.3019,5.3038,5.3072,5.3103,5.3127,5.3153,5.3173,5.3197,5.3224,5.326,5.3273,5.3305,5.3335,5.338,5.3398,5.3423,5.3424,5.343,5.3431,5.3433,5.3432,5.3406,5.3429,5.3429,5.3429,5.3429,5.3429,0,5.303,5.3054,5.3082,5.3122,5.3146,5.3158,5.3189,5.3209,5.3237,5.3265,5.3291,5.3328,5.3358,5.3386,5.3417,5.3432,5.3438,5.3439,5.3438,5.3442,5.3429,5.3423,5.3434,5.3434,5.3434,5.3434,5.3434,5.3434,5.3038,5.3071,5.3089,5.3134,5.3157,5.319,5.3207,5.3231,5.3254,5.3295,5.3321,5.334,5.3368,5.3402,5.343,5.3438,5.3448,5.3448,5.3457,5.3444,5.3443,5.3442,5.3437,5.345,5.345,5.3469,5.3469,5.3469]}]]